Time,TemperatureF,DewpointF,PressureIn,WindDirection,WindDirectionDegrees,WindSpeedMPH,WindSpeedGustMPH,Humidity,HourlyPrecipIn,Conditions,Clouds,dailyrainin,SolarRadiationWatts/m^2,SoftwareType,DateUTC
2013-08-05 00:01:00,62.2,53.8,29.88,WNW,298,3.5,3.5,74,0.00,CLR,OVC,0.00,0.0,WeatherDisplay:10.37,2013-08-05 04:01:00,
2013-08-05 00:02:00,62.1,53.7,29.88,NW,307,4.6,4.6,74,0.00,CLR,OVC,0.00,0.0,WeatherDisplay:10.37,2013-08-05 04:02:00,
2013-08-05 00:07:00,62.1,53.7,29.88,NW,325,4.6,4.6,74,0.00,CLR,OVC,0.00,0.0,WeatherDisplay:10.37,2013-08-05 04:07:00,
2013-08-05 00:12:00,62.1,53.7,29.88,NW,313,3.5,3.5,74,0.00,CLR,OVC,0.00,0.0,WeatherDisplay:10.37,2013-08-05 04:12:00,
2013-08-05 00:17:00,61.9,53.5,29.88,WNW,298,3.5,3.5,74,0.00,CLR,OVC,0.00,0.0,WeatherDisplay:10.37,2013-08-05 04:17:00,
2013-08-05 00:22:00,61.9,53.5,29.88,NW,311,8.1,8.1,74,0.00,CLR,OVC,0.00,0.0,WeatherDisplay:10.37,2013-08-05 04:22:00,
2013-08-05 00:27:00,61.7,53.3,29.88,WNW,297,5.8,5.8,74,0.00,CLR,OVC,0.00,0.0,WeatherDisplay:10.37,2013-08-05 04:27:00,
2013-08-05 00:32:00,61.7,53.0,29.88,NW,318,3.5,3.5,73,0.00,CLR,OVC,0.00,0.0,WeatherDisplay:10.37,2013-08-05 04:32:00,
2013-08-05 00:37:00,61.7,53.0,29.88,North,352,3.5,3.5,73,0.00,CLR,OVC,0.00,0.0,WeatherDisplay:10.37,2013-08-05 04:37:00,
2013-08-05 00:42:00,61.7,53.0,29.88,NW,315,3.5,3.5,73,0.00,CLR,OVC,0.00,0.0,WeatherDisplay:10.37,2013-08-05 04:42:00,
2013-08-05 00:47:00,61.5,52.8,29.88,NW,313,3.5,3.5,73,0.00,CLR,OVC,0.00,0.0,WeatherDisplay:10.37,2013-08-05 04:47:00,
2013-08-05 00:52:00,61.5,52.8,29.88,NW,305,3.5,3.5,73,0.00,CLR,OVC,0.00,0.0,WeatherDisplay:10.37,2013-08-05 04:52:00,
2013-08-05 00:57:00,61.3,52.6,29.88,NW,317,5.8,5.8,73,0.00,CLR,OVC,0.00,0.0,WeatherDisplay:10.37,2013-08-05 04:57:00,
2013-08-05 01:02:00,61.3,52.6,29.88,NW,310,3.5,3.5,73,0.00,CLR,OVC,0.00,0.0,WeatherDisplay:10.37,2013-08-05 05:02:00,
2013-08-05 01:07:00,61.2,52.4,29.88,NW,305,2.3,2.3,73,0.00,CLR,OVC,0.00,0.0,WeatherDisplay:10.37,2013-08-05 05:07:00,
2013-08-05 01:12:00,61.0,52.3,29.88,WNW,296,3.5,3.5,73,0.00,CLR,OVC,0.00,0.0,WeatherDisplay:10.37,2013-08-05 05:12:00,
2013-08-05 01:17:00,61.0,52.3,29.88,NW,309,3.5,3.5,73,0.00,CLR,OVC,0.00,0.0,WeatherDisplay:10.37,2013-08-05 05:17:00,
2013-08-05 01:22:00,60.8,52.1,29.88,NW,307,0.0,0.0,73,0.00,CLR,OVC,0.00,0.0,WeatherDisplay:10.37,2013-08-05 05:22:00,
2013-08-05 01:27:00,60.6,51.9,29.88,WNW,298,0.0,0.0,73,0.00,CLR,OVC,0.00,0.0,WeatherDisplay:10.37,2013-08-05 05:27:00,
2013-08-05 01:32:00,60.4,51.7,29.88,WNW,297,0.0,0.0,73,0.00,CLR,OVC,0.00,0.0,WeatherDisplay:10.37,2013-08-05 05:32:00,
2013-08-05 01:37:00,60.3,51.9,29.88,WNW,298,0.0,0.0,74,0.00,CLR,OVC,0.00,0.0,WeatherDisplay:10.37,2013-08-05 05:37:00,
2013-08-05 01:42:00,59.9,51.6,29.88,WNW,298,0.0,0.0,74,0.00,CLR,OVC,0.00,0.0,WeatherDisplay:10.37,2013-08-05 05:42:00,
2013-08-05 01:47:00,59.5,51.2,29.88,NW,310,0.0,0.0,74,0.00,CLR,OVC,0.00,0.0,WeatherDisplay:10.37,2013-08-05 05:47:00,
2013-08-05 01:52:00,59.2,50.9,29.88,NW,310,0.0,0.0,74,0.00,CLR,OVC,0.00,0.0,WeatherDisplay:10.37,2013-08-05 05:52:00,
2013-08-05 01:57:00,58.8,50.9,29.88,NW,310,0.0,0.0,75,0.00,CLR,OVC,0.00,0.0,WeatherDisplay:10.37,2013-08-05 05:57:00,
2013-08-05 02:02:00,58.5,50.9,29.88,NW,311,0.0,0.0,76,0.00,CLR,OVC,0.00,0.0,WeatherDisplay:10.37,2013-08-05 06:02:00,
2013-08-05 02:07:00,58.1,50.6,29.88,WNW,303,0.0,0.0,76,0.00,CLR,OVC,0.00,0.0,WeatherDisplay:10.37,2013-08-05 06:07:00,
2013-08-05 02:12:00,57.9,50.4,29.88,NW,305,0.0,0.0,76,0.00,CLR,OVC,0.00,0.0,WeatherDisplay:10.37,2013-08-05 06:12:00,
2013-08-05 02:17:00,57.6,50.4,29.88,NW,306,0.0,0.0,77,0.00,CLR,OVC,0.00,0.0,WeatherDisplay:10.37,2013-08-05 06:17:00,
2013-08-05 02:22:00,57.6,50.8,29.88,NNW,332,0.0,0.0,78,0.00,CLR,OVC,0.00,0.0,WeatherDisplay:10.37,2013-08-05 06:22:00,
2013-08-05 02:27:00,57.4,50.9,29.88,NW,311,0.0,0.0,79,0.00,CLR,OVC,0.00,0.0,WeatherDisplay:10.37,2013-08-05 06:27:00,
2013-08-05 02:32:00,57.4,50.9,29.88,NW,323,0.0,0.0,79,0.00,CLR,OVC,0.00,0.0,WeatherDisplay:10.37,2013-08-05 06:32:00,
2013-08-05 02:37:00,57.2,50.7,29.88,NW,308,0.0,0.0,79,0.00,CLR,OVC,0.00,0.0,WeatherDisplay:10.37,2013-08-05 06:37:00,
2013-08-05 02:42:00,57.2,51.1,29.88,WNW,284,0.0,0.0,80,0.00,CLR,OVC,0.00,0.0,WeatherDisplay:10.37,2013-08-05 06:42:00,
2013-08-05 02:47:00,57.0,50.9,29.88,WNW,288,0.0,0.0,80,0.00,CLR,OVC,0.00,0.0,WeatherDisplay:10.37,2013-08-05 06:47:00,
2013-08-05 02:52:00,56.8,50.7,29.88,WNW,292,0.0,0.0,80,0.00,CLR,OVC,0.00,0.0,WeatherDisplay:10.37,2013-08-05 06:52:00,
2013-08-05 02:57:00,56.8,50.7,29.88,NW,315,0.0,0.0,80,0.00,CLR,OVC,0.00,0.0,WeatherDisplay:10.37,2013-08-05 06:57:00,
2013-08-05 03:02:00,56.7,50.9,29.88,NW,315,0.0,0.0,81,0.00,CLR,OVC,0.00,0.0,WeatherDisplay:10.37,2013-08-05 07:02:00,
2013-08-05 03:07:00,56.7,50.9,29.88,NW,316,0.0,0.0,81,0.00,CLR,OVC,0.00,0.0,WeatherDisplay:10.37,2013-08-05 07:07:00,
2013-08-05 03:12:00,56.5,51.1,29.88,NW,316,0.0,0.0,82,0.00,CLR,OVC,0.00,0.0,WeatherDisplay:10.37,2013-08-05 07:12:00,
2013-08-05 03:17:00,56.5,51.1,29.88,NW,321,0.0,0.0,82,0.00,CLR,OVC,0.00,0.0,WeatherDisplay:10.37,2013-08-05 07:17:00,
2013-08-05 03:22:00,56.5,51.4,29.88,NW,305,2.3,2.3,83,0.00,CLR,OVC,0.00,0.0,WeatherDisplay:10.37,2013-08-05 07:22:00,
2013-08-05 03:27:00,56.5,51.4,29.88,North,351,3.5,0.0,83,0.00,CLR,OVC,0.00,0.0,WeatherDisplay:10.37,2013-08-05 07:27:00,
2013-08-05 03:32:00,56.7,51.9,29.88,WNW,303,0.0,0.0,84,0.00,CLR,OVC,0.00,0.0,WeatherDisplay:10.37,2013-08-05 07:32:00,
2013-08-05 03:37:00,56.7,51.9,29.88,WNW,302,0.0,0.0,84,0.00,CLR,OVC,0.00,0.0,WeatherDisplay:10.37,2013-08-05 07:37:00,
2013-08-05 03:42:00,56.5,51.7,29.88,WNW,292,3.5,3.5,84,0.00,CLR,OVC,0.00,0.0,WeatherDisplay:10.37,2013-08-05 07:42:00,
2013-08-05 03:47:00,56.5,51.7,29.88,NW,305,2.3,2.3,84,0.00,CLR,OVC,0.00,0.0,WeatherDisplay:10.37,2013-08-05 07:47:00,
2013-08-05 03:52:00,56.5,51.7,29.88,WNW,288,3.5,3.5,84,0.00,CLR,OVC,0.00,0.0,WeatherDisplay:10.37,2013-08-05 07:52:00,
2013-08-05 03:57:00,56.3,51.5,29.91,NW,315,0.0,0.0,84,0.00,CLR,OVC,0.00,0.0,WeatherDisplay:10.37,2013-08-05 07:57:00,
2013-08-05 04:02:00,56.3,51.5,29.91,NNW,329,0.0,0.0,84,0.00,CLR,OVC,0.00,0.0,WeatherDisplay:10.37,2013-08-05 08:02:00,
2013-08-05 04:07:00,56.1,51.4,29.91,North,350,0.0,0.0,84,0.00,CLR,OVC,0.00,0.0,WeatherDisplay:10.37,2013-08-05 08:07:00,
2013-08-05 04:12:00,56.1,51.4,29.91,NW,311,3.5,3.5,84,0.00,CLR,OVC,0.00,0.0,WeatherDisplay:10.37,2013-08-05 08:12:00,
2013-08-05 04:17:00,56.1,51.7,29.91,NW,320,3.5,0.0,85,0.00,CLR,OVC,0.00,0.0,WeatherDisplay:10.37,2013-08-05 08:17:00,
2013-08-05 04:22:00,56.1,51.7,29.91,WNW,303,0.0,0.0,85,0.00,CLR,OVC,0.00,0.0,WeatherDisplay:10.37,2013-08-05 08:22:00,
2013-08-05 04:27:00,56.1,51.7,29.91,West,271,0.0,0.0,85,0.00,CLR,OVC,0.00,0.0,WeatherDisplay:10.37,2013-08-05 08:27:00,
2013-08-05 04:33:00,55.9,51.8,29.91,NW,318,0.0,0.0,86,0.00,CLR,OVC,0.00,0.0,WeatherDisplay:10.37,2013-08-05 08:33:00,
2013-08-05 04:38:00,55.9,51.8,29.91,NW,323,3.5,0.0,86,0.00,CLR,OVC,0.00,0.0,WeatherDisplay:10.37,2013-08-05 08:38:00,
2013-08-05 04:43:00,55.8,51.6,29.91,NW,319,3.5,3.5,86,0.00,CLR,OVC,0.00,0.0,WeatherDisplay:10.37,2013-08-05 08:43:00,
2013-08-05 04:48:00,55.8,51.6,29.91,NNW,343,3.5,3.5,86,0.00,CLR,OVC,0.00,0.0,WeatherDisplay:10.37,2013-08-05 08:48:00,
2013-08-05 04:53:00,55.8,51.9,29.91,NW,316,3.5,0.0,87,0.00,CLR,OVC,0.00,0.0,WeatherDisplay:10.37,2013-08-05 08:53:00,
2013-08-05 04:58:00,55.9,52.1,29.91,WNW,292,4.6,4.6,87,0.00,CLR,OVC,0.00,0.0,WeatherDisplay:10.37,2013-08-05 08:58:00,
2013-08-05 05:03:00,55.9,52.1,29.91,NNW,330,0.0,0.0,87,0.00,CLR,OVC,0.00,0.0,WeatherDisplay:10.37,2013-08-05 09:03:00,
2013-08-05 05:09:00,55.9,52.1,29.91,NW,319,0.0,0.0,87,0.00,CLR,OVC,0.00,0.0,WeatherDisplay:10.37,2013-08-05 09:09:00,
2013-08-05 05:15:00,55.9,52.1,29.91,WNW,295,4.6,4.6,87,0.00,CLR,OVC,0.00,0.0,WeatherDisplay:10.37,2013-08-05 09:15:00,
2013-08-05 05:20:00,55.8,51.9,29.91,NW,320,3.5,3.5,87,0.00,CLR,OVC,0.00,0.0,WeatherDisplay:10.37,2013-08-05 09:20:00,
2013-08-05 05:26:00,55.8,51.9,29.91,NW,314,5.8,5.8,87,0.00,CLR,OVC,0.00,0.0,WeatherDisplay:10.37,2013-08-05 09:26:00,
2013-08-05 05:32:00,55.8,51.9,29.91,NNW,334,4.6,4.6,87,0.00,CLR,OVC,0.00,0.0,WeatherDisplay:10.37,2013-08-05 09:32:00,
2013-08-05 05:37:00,55.6,51.8,29.91,West,280,3.5,3.6,87,0.00,CLR,OVC,0.00,0.0,WeatherDisplay:10.37,2013-08-05 09:37:00,
2013-08-05 05:43:00,55.6,51.8,29.94,WNW,295,0.0,0.0,87,0.00,CLR,OVC,0.00,0.0,WeatherDisplay:10.37,2013-08-05 09:43:00,
2013-08-05 05:48:00,55.4,51.6,29.94,WNW,301,0.0,0.0,87,0.00,CLR,OVC,0.00,0.0,WeatherDisplay:10.37,2013-08-05 09:48:00,
2013-08-05 05:53:00,55.2,51.4,29.94,NNW,328,0.0,0.0,87,0.00,CLR,OVC,0.00,0.0,WeatherDisplay:10.37,2013-08-05 09:53:00,
2013-08-05 05:59:00,55.0,51.2,29.94,NNW,328,0.0,0.0,87,0.00,CLR,OVC,0.00,0.0,WeatherDisplay:10.37,2013-08-05 09:59:00,
2013-08-05 06:04:00,55.0,51.5,29.94,NNW,333,3.5,4.0,88,0.00,BKN,OVC,0.00,0.0,WeatherDisplay:10.37,2013-08-05 10:04:00,
2013-08-05 06:09:00,55.0,51.5,29.94,WNW,292,3.5,3.5,88,0.00,BKN,OVC,0.00,0.0,WeatherDisplay:10.37,2013-08-05 10:09:00,
2013-08-05 06:14:00,55.0,51.9,29.94,NW,324,4.6,4.6,89,0.00,BKN,OVC,0.00,0.0,WeatherDisplay:10.37,2013-08-05 10:14:00,
2013-08-05 06:19:00,55.2,52.0,29.94,NW,319,3.5,3.5,89,0.00,BKN,OVC,0.00,0.0,WeatherDisplay:10.37,2013-08-05 10:19:00,
2013-08-05 06:24:00,55.2,52.0,29.94,NW,318,4.6,4.6,89,0.00,BKN,OVC,0.00,0.0,WeatherDisplay:10.37,2013-08-05 10:24:00,
2013-08-05 06:29:00,55.4,52.2,29.94,West,279,4.6,4.6,89,0.00,BKN,OVC,0.00,0.0,WeatherDisplay:10.37,2013-08-05 10:29:00,
2013-08-05 06:34:00,55.6,52.4,29.94,WNW,296,4.0,4.0,89,0.00,BKN,OVC,0.00,0.0,WeatherDisplay:10.37,2013-08-05 10:34:00,
2013-08-05 06:39:00,55.9,52.7,29.94,NW,313,3.5,3.5,89,0.00,BKN,OVC,0.00,0.0,WeatherDisplay:10.37,2013-08-05 10:39:00,
2013-08-05 06:45:00,56.1,52.9,29.94,WNW,301,3.5,3.5,89,0.00,BKN,OVC,0.00,0.0,WeatherDisplay:10.37,2013-08-05 10:45:00,
2013-08-05 06:50:00,56.3,53.1,29.94,NW,318,3.5,0.0,89,0.00,BKN,OVC,0.00,0.0,WeatherDisplay:10.37,2013-08-05 10:50:00,
2013-08-05 06:55:00,56.7,53.5,29.94,NW,314,4.6,4.6,89,0.00,BKN,OVC,0.00,0.0,WeatherDisplay:10.37,2013-08-05 10:55:00,
2013-08-05 07:01:00,56.8,53.6,29.94,NNW,341,4.0,4.0,89,0.00,BKN,OVC,0.00,0.0,WeatherDisplay:10.37,2013-08-05 11:01:00,
2013-08-05 07:07:00,56.8,53.6,29.94,NW,318,0.0,0.0,89,0.00,FEW,OVC,0.00,0.0,WeatherDisplay:10.37,2013-08-05 11:07:00,
2013-08-05 07:12:00,57.0,53.8,29.94,WNW,294,5.8,5.8,89,0.00,FEW,OVC,0.00,0.0,WeatherDisplay:10.37,2013-08-05 11:12:00,
2013-08-05 07:17:00,57.2,54.0,29.94,NNW,344,10.4,10.4,89,0.00,FEW,OVC,0.00,0.0,WeatherDisplay:10.37,2013-08-05 11:17:00,
2013-08-05 07:22:00,57.6,54.3,29.94,WNW,300,3.5,3.5,89,0.00,FEW,OVC,0.00,0.0,WeatherDisplay:10.37,2013-08-05 11:22:00,
2013-08-05 07:27:00,57.7,54.5,29.97,WNW,299,5.8,5.8,89,0.00,FEW,OVC,0.00,0.0,WeatherDisplay:10.37,2013-08-05 11:27:00,
2013-08-05 07:33:00,58.1,54.9,29.97,North,3,3.5,3.6,89,0.00,FEW,OVC,0.00,0.0,WeatherDisplay:10.37,2013-08-05 11:33:00,
2013-08-05 07:38:00,58.3,55.1,29.97,NW,310,0.0,0.0,89,0.00,FEW,OVC,0.00,0.0,WeatherDisplay:10.37,2013-08-05 11:38:00,
2013-08-05 07:43:00,58.5,54.9,29.97,WNW,292,8.1,8.1,88,0.00,FEW,OVC,0.00,0.0,WeatherDisplay:10.37,2013-08-05 11:43:00,
2013-08-05 07:51:00,59.0,55.1,29.97,NW,319,3.0,6.0,87,0.00,FEW,OVC,0.00,0.0,WeatherDisplay:10.37,2013-08-05 11:51:00,
2013-08-05 07:56:00,59.2,55.3,29.97,NW,319,1.0,6.0,87,0.00,FEW,OVC,0.00,0.0,WeatherDisplay:10.37,2013-08-05 11:56:00,
2013-08-05 08:01:00,59.4,55.5,29.97,NW,318,5.8,5.8,87,0.00,FEW,OVC,0.00,0.0,WeatherDisplay:10.37,2013-08-05 12:01:00,
2013-08-05 08:07:00,59.7,55.5,29.97,WNW,301,0.0,0.0,86,0.00,FEW,OVC,0.00,0.0,WeatherDisplay:10.37,2013-08-05 12:07:00,
2013-08-05 08:11:00,59.9,55.7,29.97,NW,323,3.5,3.5,86,0.00,FEW,OVC,0.00,0.0,WeatherDisplay:10.37,2013-08-05 12:11:00,
2013-08-05 08:17:00,60.3,55.7,29.97,NNW,330,5.8,5.8,85,0.00,FEW,OVC,0.00,0.0,WeatherDisplay:10.37,2013-08-05 12:17:00,
2013-08-05 08:23:00,60.6,55.8,29.97,WNW,302,3.5,3.5,84,0.00,FEW,OVC,0.00,0.0,WeatherDisplay:10.37,2013-08-05 12:23:00,
2013-08-05 08:28:00,61.0,56.1,29.97,NNW,344,5.8,5.8,84,0.00,FEW,OVC,0.00,0.0,WeatherDisplay:10.37,2013-08-05 12:28:00,
2013-08-05 08:33:00,61.2,56.0,29.97,NNW,334,5.8,5.8,83,0.00,FEW,OVC,0.00,0.0,WeatherDisplay:10.37,2013-08-05 12:33:00,
2013-08-05 08:38:00,61.3,55.8,29.97,West,261,5.8,5.8,82,0.00,FEW,OVC,0.00,0.0,WeatherDisplay:10.37,2013-08-05 12:38:00,
2013-08-05 08:43:00,61.5,55.6,29.97,NNW,347,12.7,12.7,81,0.00,FEW,OVC,0.00,0.0,WeatherDisplay:10.37,2013-08-05 12:43:00,
2013-08-05 08:48:00,61.9,55.6,29.97,NNW,336,5.8,5.8,80,0.00,FEW,OVC,0.00,0.0,WeatherDisplay:10.37,2013-08-05 12:48:00,
2013-08-05 08:54:00,61.9,55.3,29.97,NNW,342,9.2,9.2,79,0.00,FEW,OVC,0.00,0.0,WeatherDisplay:10.37,2013-08-05 12:54:00,
2013-08-05 09:00:00,62.1,55.1,29.97,NW,319,4.6,4.6,78,0.00,FEW,OVC,0.00,0.0,WeatherDisplay:10.37,2013-08-05 13:00:00,
2013-08-05 09:05:00,62.2,54.9,29.97,WNW,291,11.5,11.5,77,0.00,SCT,OVC,0.00,0.0,WeatherDisplay:10.37,2013-08-05 13:05:00,
2013-08-05 09:10:00,62.4,54.8,29.94,North,357,8.1,8.1,76,0.00,SCT,OVC,0.00,0.0,WeatherDisplay:10.37,2013-08-05 13:10:00,
2013-08-05 09:15:00,62.6,54.6,29.94,NNW,339,6.9,6.9,75,0.00,SCT,OVC,0.00,0.0,WeatherDisplay:10.37,2013-08-05 13:15:00,
2013-08-05 09:20:00,62.8,54.4,29.94,WNW,294,5.8,5.8,74,0.00,SCT,OVC,0.00,0.0,WeatherDisplay:10.37,2013-08-05 13:20:00,
2013-08-05 09:25:00,63.0,54.2,29.94,NNW,333,5.8,5.8,73,0.00,SCT,OVC,0.00,0.0,WeatherDisplay:10.37,2013-08-05 13:25:00,
2013-08-05 09:30:00,63.1,54.0,29.94,NW,306,12.7,12.7,72,0.00,SCT,OVC,0.00,0.0,WeatherDisplay:10.37,2013-08-05 13:30:00,
2013-08-05 09:35:00,63.5,53.9,29.94,WNW,299,8.1,8.1,71,0.00,SCT,OVC,0.00,0.0,WeatherDisplay:10.37,2013-08-05 13:35:00,
2013-08-05 09:40:00,64.0,54.1,29.97,NW,310,12.7,12.7,70,0.00,SCT,OVC,0.00,0.0,WeatherDisplay:10.37,2013-08-05 13:40:00,
2013-08-05 09:46:00,64.3,53.9,29.97,NW,321,6.0,12.0,69,0.00,SCT,OVC,0.00,0.0,WeatherDisplay:10.37,2013-08-05 13:46:00,
2013-08-05 09:51:00,64.8,53.1,29.97,West,273,10.4,10.4,66,0.00,SCT,OVC,0.00,0.0,WeatherDisplay:10.37,2013-08-05 13:51:00,
2013-08-05 09:56:00,65.1,52.6,29.94,NNW,343,10.4,10.4,64,0.00,SCT,OVC,0.00,0.0,WeatherDisplay:10.37,2013-08-05 13:56:00,
2013-08-05 10:02:00,65.5,52.5,29.94,NW,304,6.9,6.9,63,0.00,SCT,OVC,0.00,0.0,WeatherDisplay:10.37,2013-08-05 14:02:00,
2013-08-05 10:07:00,66.0,52.6,29.94,NNW,327,3.5,0.0,62,0.00,FEW,OVC,0.00,0.0,WeatherDisplay:10.37,2013-08-05 14:07:00,
2013-08-05 10:12:00,66.2,52.3,29.94,NNW,343,3.5,3.5,61,0.00,FEW,OVC,0.00,0.0,WeatherDisplay:10.37,2013-08-05 14:12:00,
2013-08-05 10:17:00,66.7,52.9,29.94,SSW,208,8.1,8.1,61,0.00,FEW,OVC,0.00,0.0,WeatherDisplay:10.37,2013-08-05 14:17:00,
2013-08-05 10:22:00,67.3,52.9,29.94,WNW,295,6.9,6.9,60,0.00,FEW,OVC,0.00,0.0,WeatherDisplay:10.37,2013-08-05 14:22:00,
2013-08-05 10:28:00,67.5,52.6,29.94,NNW,336,11.5,11.5,59,0.00,FEW,OVC,0.00,0.0,WeatherDisplay:10.37,2013-08-05 14:28:00,
2013-08-05 10:34:00,67.6,51.4,29.94,WNW,296,10.4,10.4,56,0.00,FEW,OVC,0.00,0.0,WeatherDisplay:10.37,2013-08-05 14:34:00,
2013-08-05 10:39:00,67.8,51.5,29.94,NE,38,3.5,3.5,56,0.00,FEW,OVC,0.00,0.0,WeatherDisplay:10.37,2013-08-05 14:39:00,
2013-08-05 10:45:00,68.2,50.9,29.97,NNW,335,5.8,5.8,54,0.00,FEW,OVC,0.00,0.0,WeatherDisplay:10.37,2013-08-05 14:45:00,
2013-08-05 10:50:00,68.2,49.9,29.97,WNW,298,5.8,5.8,52,0.00,FEW,OVC,0.00,0.0,WeatherDisplay:10.37,2013-08-05 14:50:00,
2013-08-05 10:55:00,68.4,50.0,29.97,North,350,9.2,9.2,52,0.00,FEW,OVC,0.00,0.0,WeatherDisplay:10.37,2013-08-05 14:55:00,
2013-08-05 11:00:00,68.4,49.5,29.97,NW,305,3.5,4.0,51,0.00,FEW,OVC,0.00,0.0,WeatherDisplay:10.37,2013-08-05 15:00:00,
2013-08-05 11:05:00,68.5,49.7,29.97,WNW,284,10.4,10.4,51,0.00,SCT,OVC,0.00,0.0,WeatherDisplay:10.37,2013-08-05 15:05:00,
2013-08-05 11:10:00,68.7,49.3,29.97,North,2,3.5,3.6,50,0.00,SCT,OVC,0.00,0.0,WeatherDisplay:10.37,2013-08-05 15:10:00,
2013-08-05 11:16:00,68.9,49.5,29.97,NW,311,5.8,5.8,50,0.00,SCT,OVC,0.00,0.0,WeatherDisplay:10.37,2013-08-05 15:16:00,
2013-08-05 11:21:00,69.3,49.8,29.97,North,8,3.5,0.0,50,0.00,SCT,OVC,0.00,0.0,WeatherDisplay:10.37,2013-08-05 15:21:00,
2013-08-05 11:26:00,69.8,50.3,29.94,NW,320,2.0,6.0,50,0.00,SCT,OVC,0.00,0.0,WeatherDisplay:10.37,2013-08-05 15:26:00,
2013-08-05 11:31:00,70.2,50.6,29.94,NNW,333,5.8,5.8,50,0.00,SCT,OVC,0.00,0.0,WeatherDisplay:10.37,2013-08-05 15:31:00,
2013-08-05 11:39:00,70.5,51.0,29.94,NW,310,8.1,8.1,50,0.00,SCT,OVC,0.00,0.0,WeatherDisplay:10.37,2013-08-05 15:39:00,
2013-08-05 11:44:00,70.9,50.8,29.94,West,262,5.8,5.8,49,0.00,SCT,OVC,0.00,0.0,WeatherDisplay:10.37,2013-08-05 15:44:00,
2013-08-05 11:49:00,70.9,50.8,29.94,NNW,331,10.4,10.4,49,0.00,SCT,OVC,0.00,0.0,WeatherDisplay:10.37,2013-08-05 15:49:00,
2013-08-05 11:54:00,70.9,50.8,29.94,NNE,22,9.2,9.2,49,0.00,SCT,OVC,0.00,0.0,WeatherDisplay:10.37,2013-08-05 15:54:00,
2013-08-05 11:59:00,70.9,50.8,29.94,NW,316,9.2,9.2,49,0.00,SCT,OVC,0.00,0.0,WeatherDisplay:10.37,2013-08-05 15:59:00,
2013-08-05 12:04:00,71.2,51.1,29.94,NNW,345,8.0,8.0,49,0.00,SCT,OVC,0.00,0.0,WeatherDisplay:10.37,2013-08-05 16:04:00,
2013-08-05 12:10:00,71.8,51.0,29.97,NW,309,5.8,5.8,48,0.00,SCT,OVC,0.00,0.0,WeatherDisplay:10.37,2013-08-05 16:10:00,
2013-08-05 12:15:00,72.1,51.4,29.97,NW,325,8.1,8.1,48,0.00,SCT,OVC,0.00,0.0,WeatherDisplay:10.37,2013-08-05 16:15:00,
2013-08-05 12:20:00,72.5,51.7,29.97,NW,325,3.5,3.5,48,0.00,SCT,OVC,0.00,0.0,WeatherDisplay:10.37,2013-08-05 16:20:00,
2013-08-05 12:25:00,72.9,52.0,29.94,NW,325,5.8,5.8,48,0.00,SCT,OVC,0.00,0.0,WeatherDisplay:10.37,2013-08-05 16:25:00,
2013-08-05 12:30:00,73.0,50.4,29.94,NNW,347,9.2,9.2,45,0.00,SCT,OVC,0.00,0.0,WeatherDisplay:10.37,2013-08-05 16:30:00,
2013-08-05 12:36:00,73.2,50.6,29.94,NW,308,1.0,6.0,45,0.00,SCT,OVC,0.00,0.0,WeatherDisplay:10.37,2013-08-05 16:36:00,
2013-08-05 12:41:00,73.6,50.4,29.94,NW,305,5.0,9.0,44,0.00,SCT,OVC,0.00,0.0,WeatherDisplay:10.37,2013-08-05 16:41:00,
2013-08-05 12:46:00,73.8,50.5,29.94,West,281,5.8,5.8,44,0.00,SCT,OVC,0.00,0.0,WeatherDisplay:10.37,2013-08-05 16:46:00,
2013-08-05 12:52:00,73.8,50.5,29.94,West,279,6.9,6.9,44,0.00,SCT,OVC,0.00,0.0,WeatherDisplay:10.37,2013-08-05 16:52:00,
2013-08-05 12:56:00,73.9,50.6,29.94,WNW,291,3.5,3.5,44,0.00,SCT,OVC,0.00,0.0,WeatherDisplay:10.37,2013-08-05 16:56:00,
2013-08-05 13:02:00,74.3,51.0,29.94,East,101,8.1,8.1,44,0.00,SCT,OVC,0.00,0.0,WeatherDisplay:10.37,2013-08-05 17:02:00,
2013-08-05 13:07:00,74.5,49.9,29.94,WNW,292,8.1,8.1,42,0.00,SCT,OVC,0.00,0.0,WeatherDisplay:10.37,2013-08-05 17:07:00,
2013-08-05 13:12:00,74.7,50.0,29.94,NW,313,4.6,6.3,42,0.00,SCT,OVC,0.00,0.0,WeatherDisplay:10.37,2013-08-05 17:12:00,
2013-08-05 13:18:00,74.8,50.2,29.94,North,1,8.1,8.1,42,0.00,SCT,OVC,0.00,0.0,WeatherDisplay:10.37,2013-08-05 17:18:00,
2013-08-05 13:23:00,74.8,50.2,29.94,West,271,4.6,4.9,42,0.00,SCT,OVC,0.00,0.0,WeatherDisplay:10.37,2013-08-05 17:23:00,
2013-08-05 13:27:00,74.8,50.2,29.94,NW,325,5.8,5.8,42,0.00,SCT,OVC,0.00,0.0,WeatherDisplay:10.37,2013-08-05 17:27:00,
2013-08-05 13:33:00,75.2,49.2,29.94,West,270,3.5,0.0,40,0.00,SCT,OVC,0.00,0.0,WeatherDisplay:10.37,2013-08-05 17:33:00,
2013-08-05 13:38:00,75.7,49.7,29.94,WNW,295,3.5,0.0,40,0.00,SCT,OVC,0.00,0.0,WeatherDisplay:10.37,2013-08-05 17:38:00,
2013-08-05 13:44:00,76.1,50.0,29.94,WNW,284,3.5,3.5,40,0.00,SCT,OVC,0.00,0.0,WeatherDisplay:10.37,2013-08-05 17:44:00,
2013-08-05 13:49:00,75.9,48.5,29.94,NNW,344,10.4,10.4,38,0.00,SCT,OVC,0.00,0.0,WeatherDisplay:10.37,2013-08-05 17:49:00,
2013-08-05 13:54:00,75.9,48.5,29.94,North,356,5.8,5.8,38,0.00,SCT,OVC,0.00,0.0,WeatherDisplay:10.37,2013-08-05 17:54:00,
2013-08-05 13:59:00,76.1,48.6,29.94,NNW,346,9.2,9.2,38,0.00,SCT,OVC,0.00,0.0,WeatherDisplay:10.37,2013-08-05 17:59:00,
2013-08-05 14:04:00,76.1,48.6,29.94,NW,307,4.6,4.6,38,0.00,FEW,OVC,0.00,0.0,WeatherDisplay:10.37,2013-08-05 18:04:00,
2013-08-05 14:09:00,76.5,49.0,29.94,NNE,24,0.0,0.0,38,0.00,FEW,OVC,0.00,0.0,WeatherDisplay:10.37,2013-08-05 18:09:00,
2013-08-05 14:14:00,76.6,49.1,29.94,NW,308,9.2,9.2,38,0.00,FEW,OVC,0.00,0.0,WeatherDisplay:10.37,2013-08-05 18:14:00,
2013-08-05 14:19:00,76.6,49.1,29.94,NNW,341,8.1,8.1,38,0.00,FEW,OVC,0.00,0.0,WeatherDisplay:10.37,2013-08-05 18:19:00,
2013-08-05 14:24:00,76.6,49.1,29.94,NW,309,4.6,0.0,38,0.00,FEW,OVC,0.00,0.0,WeatherDisplay:10.37,2013-08-05 18:24:00,
2013-08-05 14:30:00,76.8,49.3,29.94,WNW,301,6.3,6.3,38,0.00,FEW,OVC,0.00,0.0,WeatherDisplay:10.37,2013-08-05 18:30:00,
2013-08-05 14:35:00,76.8,49.3,29.94,WNW,286,5.8,5.8,38,0.00,FEW,OVC,0.00,0.0,WeatherDisplay:10.37,2013-08-05 18:35:00,
2013-08-05 14:41:00,77.0,49.4,29.94,NW,306,3.0,9.0,38,0.00,FEW,OVC,0.00,0.0,WeatherDisplay:10.37,2013-08-05 18:41:00,
2013-08-05 14:46:00,77.2,49.6,29.94,NW,325,8.1,8.1,38,0.00,FEW,OVC,0.00,0.0,WeatherDisplay:10.37,2013-08-05 18:46:00,
2013-08-05 14:51:00,77.2,49.6,29.94,NW,315,3.0,10.0,38,0.00,FEW,OVC,0.00,0.0,WeatherDisplay:10.37,2013-08-05 18:51:00,
2013-08-05 14:56:00,77.4,49.8,29.94,NW,314,5.0,8.0,38,0.00,FEW,OVC,0.00,0.0,WeatherDisplay:10.37,2013-08-05 18:56:00,
2013-08-05 15:01:00,77.0,46.5,29.94,WNW,295,8.1,8.1,34,0.00,FEW,OVC,0.00,0.0,WeatherDisplay:10.37,2013-08-05 19:01:00,
2013-08-05 15:06:00,77.0,46.5,29.94,WNW,285,9.2,9.2,34,0.00,FEW,OVC,0.00,0.0,WeatherDisplay:10.37,2013-08-05 19:06:00,
2013-08-05 15:12:00,77.0,46.5,29.94,NNW,331,5.8,5.8,34,0.00,FEW,OVC,0.00,0.0,WeatherDisplay:10.37,2013-08-05 19:12:00,
2013-08-05 15:17:00,77.0,46.5,29.94,NW,317,10.4,10.4,34,0.00,FEW,OVC,0.00,0.0,WeatherDisplay:10.37,2013-08-05 19:17:00,
2013-08-05 15:22:00,77.0,46.5,29.94,NNW,334,3.5,3.5,34,0.00,FEW,OVC,0.00,0.0,WeatherDisplay:10.37,2013-08-05 19:22:00,
2013-08-05 15:27:00,77.2,46.6,29.94,NNW,331,11.5,11.5,34,0.00,FEW,OVC,0.00,0.0,WeatherDisplay:10.37,2013-08-05 19:27:00,
2013-08-05 15:32:00,77.0,46.5,29.94,WSW,248,3.5,3.5,34,0.00,FEW,OVC,0.00,0.0,WeatherDisplay:10.37,2013-08-05 19:32:00,
2013-08-05 15:38:00,77.4,46.8,29.94,NNW,331,6.9,6.9,34,0.00,FEW,OVC,0.00,0.0,WeatherDisplay:10.37,2013-08-05 19:38:00,
2013-08-05 15:43:00,77.4,46.8,29.94,NNE,17,5.8,5.8,34,0.00,FEW,OVC,0.00,0.0,WeatherDisplay:10.37,2013-08-05 19:43:00,
2013-08-05 15:48:00,77.4,46.8,29.94,NNW,334,5.8,5.8,34,0.00,FEW,OVC,0.00,0.0,WeatherDisplay:10.37,2013-08-05 19:48:00,
2013-08-05 15:53:00,77.4,46.8,29.94,NW,323,5.8,5.8,34,0.00,FEW,OVC,0.00,0.0,WeatherDisplay:10.37,2013-08-05 19:53:00,
2013-08-05 15:59:00,77.5,46.9,29.94,NW,317,3.5,4.5,34,0.00,FEW,OVC,0.00,0.0,WeatherDisplay:10.37,2013-08-05 19:59:00,
2013-08-05 16:05:00,77.4,46.8,29.94,NNW,339,5.8,5.8,34,0.00,FEW,OVC,0.00,0.0,WeatherDisplay:10.37,2013-08-05 20:05:00,
2013-08-05 16:10:00,77.5,46.9,29.94,WNW,297,9.2,9.2,34,0.00,FEW,OVC,0.00,0.0,WeatherDisplay:10.37,2013-08-05 20:10:00,
2013-08-05 16:15:00,77.5,46.9,29.94,West,281,3.5,0.0,34,0.00,FEW,OVC,0.00,0.0,WeatherDisplay:10.37,2013-08-05 20:15:00,
2013-08-05 16:20:00,77.7,47.1,29.94,NW,310,4.6,4.6,34,0.00,FEW,OVC,0.00,0.0,WeatherDisplay:10.37,2013-08-05 20:20:00,
2013-08-05 16:25:00,77.7,47.1,29.94,NW,308,5.8,5.8,34,0.00,FEW,OVC,0.00,0.0,WeatherDisplay:10.37,2013-08-05 20:25:00,
2013-08-05 16:30:00,77.7,47.1,29.94,WNW,298,4.6,4.6,34,0.00,FEW,OVC,0.00,0.0,WeatherDisplay:10.37,2013-08-05 20:30:00,
2013-08-05 16:35:00,77.5,46.9,29.94,West,269,8.1,8.1,34,0.00,FEW,OVC,0.00,0.0,WeatherDisplay:10.37,2013-08-05 20:35:00,
2013-08-05 16:40:00,77.4,46.8,29.94,North,3,2.3,0.0,34,0.00,FEW,OVC,0.00,0.0,WeatherDisplay:10.37,2013-08-05 20:40:00,
2013-08-05 16:46:00,77.4,46.8,29.94,WNW,286,5.8,5.8,34,0.00,FEW,OVC,0.00,0.0,WeatherDisplay:10.37,2013-08-05 20:46:00,
2013-08-05 16:51:00,77.4,46.8,29.94,NW,311,2.0,6.0,34,0.00,FEW,OVC,0.00,0.0,WeatherDisplay:10.37,2013-08-05 20:51:00,
2013-08-05 16:56:00,77.2,46.6,29.94,NW,314,0.0,0.0,34,0.00,FEW,OVC,0.00,0.0,WeatherDisplay:10.37,2013-08-05 20:56:00,
2013-08-05 17:02:00,77.4,46.8,29.94,West,281,3.5,0.0,34,0.00,FEW,OVC,0.00,0.0,WeatherDisplay:10.37,2013-08-05 21:02:00,
2013-08-05 17:07:00,77.4,46.8,29.94,NNW,344,4.6,4.6,34,0.00,FEW,OVC,0.00,0.0,WeatherDisplay:10.37,2013-08-05 21:07:00,
2013-08-05 17:12:00,77.2,46.6,29.94,WNW,291,3.5,3.5,34,0.00,FEW,OVC,0.00,0.0,WeatherDisplay:10.37,2013-08-05 21:12:00,
2013-08-05 17:17:00,77.0,46.5,29.94,NNW,337,3.5,3.5,34,0.00,FEW,OVC,0.00,0.0,WeatherDisplay:10.37,2013-08-05 21:17:00,
2013-08-05 17:22:00,76.8,46.3,29.94,NNW,332,3.5,3.5,34,0.00,FEW,OVC,0.00,0.0,WeatherDisplay:10.37,2013-08-05 21:22:00,
2013-08-05 17:27:00,76.8,46.3,29.94,North,353,3.5,3.5,34,0.00,FEW,OVC,0.00,0.0,WeatherDisplay:10.37,2013-08-05 21:27:00,
2013-08-05 17:33:00,76.8,46.3,29.94,NNW,339,5.8,5.8,34,0.00,FEW,OVC,0.00,0.0,WeatherDisplay:10.37,2013-08-05 21:33:00,
2013-08-05 17:38:00,76.6,46.2,29.94,WNW,289,5.8,5.8,34,0.00,FEW,OVC,0.00,0.0,WeatherDisplay:10.37,2013-08-05 21:38:00,
2013-08-05 17:43:00,76.3,45.8,29.94,WNW,300,5.8,5.8,34,0.00,FEW,OVC,0.00,0.0,WeatherDisplay:10.37,2013-08-05 21:43:00,
2013-08-05 17:48:00,76.1,45.7,29.94,NW,320,5.8,5.8,34,0.00,FEW,OVC,0.00,0.0,WeatherDisplay:10.37,2013-08-05 21:48:00,
2013-08-05 17:53:00,75.7,45.4,29.94,NNW,330,0.0,0.0,34,0.00,FEW,OVC,0.00,0.0,WeatherDisplay:10.37,2013-08-05 21:53:00,
2013-08-05 17:59:00,75.6,45.2,29.94,NW,309,2.3,2.3,34,0.00,FEW,OVC,0.00,0.0,WeatherDisplay:10.37,2013-08-05 21:59:00,
2013-08-05 18:05:00,75.4,45.1,29.94,NNW,338,5.8,5.8,34,0.00,FEW,OVC,0.00,0.0,WeatherDisplay:10.37,2013-08-05 22:05:00,
2013-08-05 18:10:00,75.0,46.2,29.94,NNW,327,3.5,0.0,36,0.00,FEW,OVC,0.00,0.0,WeatherDisplay:10.37,2013-08-05 22:10:00,
2013-08-05 18:16:00,74.7,45.9,29.94,NW,309,0.0,0.0,36,0.00,FEW,OVC,0.00,0.0,WeatherDisplay:10.37,2013-08-05 22:16:00,
2013-08-05 18:21:00,74.5,47.2,29.94,WNW,284,0.0,0.0,38,0.00,FEW,OVC,0.00,0.0,WeatherDisplay:10.37,2013-08-05 22:21:00,
2013-08-05 18:26:00,74.2,47.0,29.94,WNW,293,0.0,0.0,38,0.00,FEW,OVC,0.00,0.0,WeatherDisplay:10.37,2013-08-05 22:26:00,
2013-08-05 18:31:00,73.6,46.4,29.94,NW,306,3.5,3.5,38,0.00,FEW,OVC,0.00,0.0,WeatherDisplay:10.37,2013-08-05 22:31:00,
2013-08-05 18:37:00,72.7,46.3,29.94,NW,317,0.0,0.0,39,0.00,FEW,OVC,0.00,0.0,WeatherDisplay:10.37,2013-08-05 22:37:00,
2013-08-05 18:42:00,72.1,45.8,29.97,NNW,336,0.0,0.0,39,0.00,FEW,OVC,0.00,0.0,WeatherDisplay:10.37,2013-08-05 22:42:00,
2013-08-05 18:47:00,71.4,45.2,29.97,NW,309,0.0,0.0,39,0.00,FEW,OVC,0.00,0.0,WeatherDisplay:10.37,2013-08-05 22:47:00,
2013-08-05 18:53:00,70.9,44.7,29.97,NW,317,0.0,0.0,39,0.00,FEW,OVC,0.00,0.0,WeatherDisplay:10.37,2013-08-05 22:53:00,
2013-08-05 18:58:00,70.3,46.8,29.97,NW,307,0.0,0.0,43,0.00,FEW,OVC,0.00,0.0,WeatherDisplay:10.37,2013-08-05 22:58:00,
2013-08-05 19:03:00,70.0,46.4,29.97,NW,322,0.0,0.0,43,0.00,FEW,OVC,0.00,0.0,WeatherDisplay:10.37,2013-08-05 23:03:00,
2013-08-05 19:08:00,69.6,46.1,29.97,NW,325,0.0,0.0,43,0.00,FEW,OVC,0.00,0.0,WeatherDisplay:10.37,2013-08-05 23:08:00,
2013-08-05 19:15:00,69.3,47.6,29.97,NNW,329,0.0,0.0,46,0.00,FEW,OVC,0.00,0.0,WeatherDisplay:10.37,2013-08-05 23:15:00,
2013-08-05 19:20:00,68.9,47.3,29.97,NW,311,0.0,0.0,46,0.00,FEW,OVC,0.00,0.0,WeatherDisplay:10.37,2013-08-05 23:20:00,
2013-08-05 19:25:00,68.5,48.6,29.97,NNW,328,0.0,0.0,49,0.00,FEW,OVC,0.00,0.0,WeatherDisplay:10.37,2013-08-05 23:25:00,
2013-08-05 19:30:00,68.4,48.5,29.97,NNW,330,0.0,0.0,49,0.00,FEW,OVC,0.00,0.0,WeatherDisplay:10.37,2013-08-05 23:30:00,
2013-08-05 19:36:00,67.8,48.5,29.97,NNW,330,0.0,0.0,50,0.00,FEW,OVC,0.00,0.0,WeatherDisplay:10.37,2013-08-05 23:36:00,
2013-08-05 19:41:00,67.5,48.2,29.97,NNW,331,0.0,0.0,50,0.00,FEW,OVC,0.00,0.0,WeatherDisplay:10.37,2013-08-05 23:41:00,
2013-08-05 19:46:00,66.9,48.2,29.97,NNW,331,0.0,0.0,51,0.00,FEW,OVC,0.00,0.0,WeatherDisplay:10.37,2013-08-05 23:46:00,
2013-08-05 19:51:00,66.4,47.7,29.97,NNW,331,0.0,0.0,51,0.00,FEW,OVC,0.00,0.0,WeatherDisplay:10.37,2013-08-05 23:51:00,
2013-08-05 19:56:00,65.8,47.7,29.97,NNW,341,0.0,0.0,52,0.00,FEW,OVC,0.00,0.0,WeatherDisplay:10.37,2013-08-05 23:56:00,
2013-08-05 20:02:00,65.3,47.7,29.97,NNW,338,0.0,0.0,53,0.00,FEW,OVC,0.00,0.0,WeatherDisplay:10.37,2013-08-06 00:02:00,
2013-08-05 20:07:00,64.8,48.2,29.97,NNW,339,0.0,0.0,55,0.00,FEW,OVC,0.00,0.0,WeatherDisplay:10.37,2013-08-06 00:07:00,
2013-08-05 20:12:00,64.2,48.7,30.00,NW,320,0.0,0.0,57,0.00,FEW,OVC,0.00,0.0,WeatherDisplay:10.37,2013-08-06 00:12:00,
2013-08-05 20:17:00,63.9,48.8,30.00,NW,323,0.0,0.0,58,0.00,FEW,OVC,0.00,0.0,WeatherDisplay:10.37,2013-08-06 00:17:00,
2013-08-05 20:23:00,63.5,48.9,30.00,NW,322,0.0,0.0,59,0.00,FEW,OVC,0.00,0.0,WeatherDisplay:10.37,2013-08-06 00:23:00,
2013-08-05 20:28:00,63.3,49.2,30.00,NW,322,0.0,0.0,60,0.00,FEW,OVC,0.00,0.0,WeatherDisplay:10.37,2013-08-06 00:28:00,
2013-08-05 20:33:00,63.1,49.0,30.00,NW,323,0.0,0.0,60,0.00,FEW,OVC,0.00,0.0,WeatherDisplay:10.37,2013-08-06 00:33:00,
2013-08-05 20:39:00,63.0,49.3,30.00,NW,322,0.0,0.0,61,0.00,FEW,OVC,0.00,0.0,WeatherDisplay:10.37,2013-08-06 00:39:00,
2013-08-05 20:44:00,62.6,49.0,30.00,NW,323,0.0,0.0,61,0.00,FEW,OVC,0.00,0.0,WeatherDisplay:10.37,2013-08-06 00:44:00,
2013-08-05 20:49:00,62.4,49.2,30.00,NW,323,0.0,0.0,62,0.00,FEW,OVC,0.00,0.0,WeatherDisplay:10.37,2013-08-06 00:49:00,
2013-08-05 20:55:00,62.2,49.1,30.00,NW,323,0.0,0.0,62,0.00,FEW,OVC,0.00,0.0,WeatherDisplay:10.37,2013-08-06 00:55:00,
2013-08-05 21:00:00,61.9,49.1,30.00,NW,322,0.0,0.0,63,0.00,FEW,OVC,0.00,0.0,WeatherDisplay:10.37,2013-08-06 01:00:00,
2013-08-05 21:05:00,61.5,48.8,30.00,NW,322,0.0,0.0,63,0.00,FEW,OVC,0.00,0.0,WeatherDisplay:10.37,2013-08-06 01:05:00,
2013-08-05 21:10:00,61.0,48.7,30.00,NW,322,0.0,0.0,64,0.00,FEW,OVC,0.00,0.0,WeatherDisplay:10.37,2013-08-06 01:10:00,
2013-08-05 21:15:00,60.6,48.8,30.00,NW,323,0.0,0.0,65,0.00,FEW,OVC,0.00,0.0,WeatherDisplay:10.37,2013-08-06 01:15:00,
2013-08-05 21:21:00,60.4,49.0,30.00,NW,322,0.0,0.0,66,0.00,FEW,OVC,0.00,0.0,WeatherDisplay:10.37,2013-08-06 01:21:00,
2013-08-05 21:26:00,60.1,49.1,30.00,NW,322,0.0,0.0,67,0.00,FEW,OVC,0.00,0.0,WeatherDisplay:10.37,2013-08-06 01:26:00,
2013-08-05 21:31:00,59.7,49.1,30.00,NW,322,0.0,0.0,68,0.00,FEW,OVC,0.00,0.0,WeatherDisplay:10.37,2013-08-06 01:31:00,
2013-08-05 21:36:00,59.5,49.4,30.00,NW,324,0.0,0.0,69,0.00,FEW,OVC,0.00,0.0,WeatherDisplay:10.37,2013-08-06 01:36:00,
2013-08-05 21:41:00,59.2,49.4,30.03,NNW,327,0.0,0.0,70,0.00,FEW,OVC,0.00,0.0,WeatherDisplay:10.37,2013-08-06 01:41:00,
2013-08-05 21:47:00,59.2,49.8,30.03,NNW,330,0.0,0.0,71,0.00,FEW,OVC,0.00,0.0,WeatherDisplay:10.37,2013-08-06 01:47:00,
2013-08-05 21:52:00,59.0,49.6,30.03,NW,311,0.0,0.0,71,0.00,FEW,OVC,0.00,0.0,WeatherDisplay:10.37,2013-08-06 01:52:00,
2013-08-05 21:57:00,58.8,49.8,30.03,NW,311,0.0,0.0,72,0.00,FEW,OVC,0.00,0.0,WeatherDisplay:10.37,2013-08-06 01:57:00,
2013-08-05 22:02:00,58.8,49.4,30.03,NW,311,0.0,0.0,71,0.00,FEW,OVC,0.00,0.0,WeatherDisplay:10.37,2013-08-06 02:02:00,
2013-08-05 22:07:00,58.8,49.8,30.03,NW,311,0.0,0.0,72,0.00,CLR,OVC,0.00,0.0,WeatherDisplay:10.37,2013-08-06 02:07:00,
2013-08-05 22:12:00,58.6,49.6,30.03,NW,311,0.0,0.0,72,0.00,CLR,OVC,0.00,0.0,WeatherDisplay:10.37,2013-08-06 02:12:00,
2013-08-05 22:17:00,58.5,49.8,30.03,NW,312,0.0,0.0,73,0.00,CLR,OVC,0.00,0.0,WeatherDisplay:10.37,2013-08-06 02:17:00,
2013-08-05 22:22:00,58.3,49.7,30.03,NNW,333,0.0,0.0,73,0.00,CLR,OVC,0.00,0.0,WeatherDisplay:10.37,2013-08-06 02:22:00,
2013-08-05 22:29:00,57.9,49.7,30.03,NNW,333,0.0,0.0,74,0.00,CLR,OVC,0.00,0.0,WeatherDisplay:10.37,2013-08-06 02:29:00,
2013-08-05 22:34:00,57.7,49.5,30.03,NNW,333,0.0,0.0,74,0.00,CLR,OVC,0.00,0.0,WeatherDisplay:10.37,2013-08-06 02:34:00,
2013-08-05 22:39:00,57.6,49.7,30.03,NNW,333,0.0,0.0,75,0.00,CLR,OVC,0.00,0.0,WeatherDisplay:10.37,2013-08-06 02:39:00,
2013-08-05 22:45:00,57.4,49.9,30.03,NNW,339,0.0,0.0,76,0.00,CLR,OVC,0.00,0.0,WeatherDisplay:10.37,2013-08-06 02:45:00,
2013-08-05 22:50:00,57.2,49.7,30.03,North,351,0.0,0.0,76,0.00,CLR,OVC,0.00,0.0,WeatherDisplay:10.37,2013-08-06 02:50:00,
2013-08-05 22:56:00,57.2,49.7,30.03,NNW,337,0.0,0.0,76,0.00,CLR,OVC,0.00,0.0,WeatherDisplay:10.37,2013-08-06 02:56:00,
2013-08-05 23:01:00,57.2,49.7,30.03,North,355,0.0,0.0,76,0.00,CLR,OVC,0.00,0.0,WeatherDisplay:10.37,2013-08-06 03:01:00,
2013-08-05 23:06:00,57.0,49.9,30.03,North,351,0.0,0.0,77,0.00,CLR,OVC,0.00,0.0,WeatherDisplay:10.37,2013-08-06 03:06:00,
2013-08-05 23:11:00,57.0,49.9,30.03,NNW,339,0.0,0.0,77,0.00,CLR,OVC,0.00,0.0,WeatherDisplay:10.37,2013-08-06 03:11:00,
2013-08-05 23:17:00,56.8,50.1,30.03,NNW,339,0.0,0.0,78,0.00,CLR,OVC,0.00,0.0,WeatherDisplay:10.37,2013-08-06 03:17:00,
2013-08-05 23:22:00,56.8,50.1,30.03,NNW,339,0.0,0.0,78,0.00,CLR,OVC,0.00,0.0,WeatherDisplay:10.37,2013-08-06 03:22:00,
2013-08-05 23:27:00,56.8,50.4,30.03,NNW,330,0.0,0.0,79,0.00,CLR,OVC,0.00,0.0,WeatherDisplay:10.37,2013-08-06 03:27:00,
2013-08-05 23:32:00,56.8,50.4,30.03,NNW,331,0.0,0.0,79,0.00,CLR,OVC,0.00,0.0,WeatherDisplay:10.37,2013-08-06 03:32:00,
2013-08-05 23:37:00,56.7,50.6,30.03,NNW,330,0.0,0.0,80,0.00,CLR,OVC,0.00,0.0,WeatherDisplay:10.37,2013-08-06 03:37:00,
2013-08-05 23:43:00,56.5,50.4,30.03,NW,317,0.0,0.0,80,0.00,CLR,OVC,0.00,0.0,WeatherDisplay:10.37,2013-08-06 03:43:00,
2013-08-05 23:48:00,56.3,50.2,30.03,NW,316,0.0,0.0,80,0.00,CLR,OVC,0.00,0.0,WeatherDisplay:10.37,2013-08-06 03:48:00,
2013-08-05 23:53:00,56.1,50.0,30.03,North,351,0.0,0.0,80,0.00,CLR,OVC,0.00,0.0,WeatherDisplay:10.37,2013-08-06 03:53:00,
2013-08-05 23:58:00,56.1,50.4,30.03,NW,326,0.0,0.0,81,0.00,CLR,OVC,0.00,0.0,WeatherDisplay:10.37,2013-08-06 03:58:00,